Weather History for Greenville, AL

Change the Weather History Date:

Sunday, June 2, 2013

  Actual Average Record
Temperature  
Mean Temperature 78 °F -  
Max Temperature 86 °F 87 °F 98 °F (1985)
Min Temperature 71 °F 63 °F 51 °F (1972)
Cooling Degree Days 14    
Growing Degree Days 28 (Base 50)    
Moisture  
Dew Point 70 °F    
Average Humidity 84    
Maximum Humidity 96    
Minimum Humidity 57    
Precipitation  
Precipitation 0.63 in - - ()
Sea Level Pressure  
Sea Level Pressure 29.94 in    
Wind  
Wind Speed 4 mph (SSW)    
Max Wind Speed 17 mph    
Max Gust Speed 22 mph    
Visibility 8 miles    
Events Fog , Rain , Thunderstorm    
Averages and records for this station are not official NWS values.
T = Trace of Precipitation, MM = Missing Value Source: NWS Daily Summary

Daily Weather History Graph

Daily Weather History Graph

Search for Another Location

Airport:

Trip Planner

Search our weather history database for the weather conditions in past years. The results will help you decide how hot, cold, wet, or windy it might be!

Date:

Astronomy

Jun. 02, 2013 Rise Set
Actual Time 5:41 AM CDT 7:48 PM CDT
Civil Twilight 5:13 AM CDT 8:15 PM CDT
Nautical Twilight 4:39 AM CDT 8:49 PM CDT
Astronomical Twilight 4:03 AM CDT 9:26 PM CDT
Moon 1:48 AM CDT (6/2) 2:35 PM CDT (6/2)
Length of Visible Light 15h 02m
Length of Day
14h 06m
Waning Crescent, 30% of the Moon is Illuminated
Jun 2
Waning Crescent
Jun 8
New
Jun 16
First Quarter
Jun 23
Full
Jun 29
Last Quarter

Hourly Weather History & Observations

Time (CDT) Temp. Heat Index Dew Point Humidity Pressure Visibility Wind Dir Wind Speed Gust Speed Precip Events Conditions
12:56 AM 72.0 °F - 70.0 °F 93% 29.98 in 10.0 mi Calm Calm - N/A   Clear
1:56 AM 72.0 °F - 70.0 °F 93% 29.96 in 10.0 mi South 4.6 mph - N/A   Clear
2:56 AM 72.0 °F - 70.0 °F 93% 29.96 in 8.0 mi Calm Calm - N/A   Clear
3:56 AM 71.1 °F - 69.1 °F 93% 29.97 in 5.0 mi Calm Calm - N/A   Mostly Cloudy
4:20 AM 71.6 °F - 69.8 °F 94% 29.98 in 1.8 mi SW 6.9 mph - N/A   Overcast
4:32 AM 71.6 °F - 69.8 °F 94% 29.99 in 0.5 mi WSW 5.8 mph - N/A Fog Fog
4:56 AM 71.1 °F - 70.0 °F 96% 29.97 in 0.8 mi WSW 5.8 mph - N/A   Mist
5:20 AM 71.6 °F - 69.8 °F 94% 29.99 in 2.5 mi West 6.9 mph - N/A   Overcast
5:27 AM 71.6 °F - 69.8 °F 94% 29.99 in 5.0 mi West 8.1 mph - N/A   Overcast
5:56 AM 72.0 °F - 70.0 °F 93% 29.99 in 7.0 mi West 4.6 mph - N/A   Mostly Cloudy
6:11 AM 71.6 °F - 69.8 °F 94% 30.00 in 6.0 mi West 3.5 mph - N/A   Scattered Clouds
7:03 AM 73.4 °F - 71.6 °F 94% 29.99 in 7.0 mi Calm Calm - N/A   Overcast
8:09 AM 75.2 °F - 69.8 °F 83% 29.98 in 10.0 mi Calm Calm - N/A   Mostly Cloudy
8:26 AM 77.0 °F - 69.8 °F 78% 29.97 in 10.0 mi West 4.6 mph - N/A   Partly Cloudy
8:56 AM 80.1 °F 82.7 °F 68.0 °F 67% 29.94 in 10.0 mi Calm Calm - N/A   Clear
9:56 AM 82.0 °F 85.9 °F 70.0 °F 67% 29.94 in 10.0 mi Variable 3.5 mph - N/A   Clear
10:56 AM 84.9 °F 89.4 °F 70.0 °F 61% 29.92 in 10.0 mi SSE 9.2 mph - N/A   Clear
11:56 AM 86.0 °F 90.7 °F 70.0 °F 59% 29.91 in 10.0 mi Variable 6.9 mph - N/A   Partly Cloudy
12:56 PM 86.0 °F 90.7 °F 70.0 °F 59% 29.91 in 10.0 mi SSW 6.9 mph - N/A   Mostly Cloudy
1:56 PM 86.0 °F 90.1 °F 69.1 °F 57% 29.88 in 10.0 mi Variable 5.8 mph - N/A Thunderstorm Thunderstorm
2:16 PM 75.2 °F - 71.6 °F 89% 29.92 in 1.5 mi WNW 17.3 mph 21.9 mph 0.11 in Rain , Thunderstorm Thunderstorms and Rain
2:21 PM 75.2 °F - 69.8 °F 83% 29.93 in 0.5 mi West 4.6 mph 21.9 mph 0.29 in Rain , Thunderstorm Heavy Thunderstorms and Rain
2:35 PM 73.4 °F - 68.0 °F 83% 29.91 in - East 13.8 mph 18.4 mph 0.61 in Rain , Thunderstorm Heavy Thunderstorms and Rain
2:56 PM 73.0 °F - 69.1 °F 87% 29.90 in 10.0 mi SE 4.6 mph - 0.62 in Rain , Thunderstorm Light Thunderstorms and Rain
3:56 PM 77.0 °F - 73.0 °F 88% 29.89 in 10.0 mi ENE 5.8 mph - 0.00 in Thunderstorm Thunderstorm
4:29 PM 78.8 °F - 71.6 °F 78% 29.90 in 10.0 mi ESE 4.6 mph - N/A   Clear
4:56 PM 80.1 °F 83.8 °F 72.0 °F 76% 29.87 in 10.0 mi East 4.6 mph - N/A   Clear
5:56 PM 82.0 °F 86.7 °F 72.0 °F 71% 29.87 in 10.0 mi South 3.5 mph - N/A   Clear
6:56 PM 80.1 °F 84.2 °F 73.0 °F 79% 29.88 in 10.0 mi SE 5.8 mph - N/A   Clear
7:56 PM 77.0 °F - 72.0 °F 84% 29.90 in 10.0 mi Calm Calm - N/A   Clear
8:56 PM 73.9 °F - 71.1 °F 91% 29.90 in 10.0 mi Calm Calm - N/A   Clear
9:56 PM 73.0 °F - 71.1 °F 93% 29.92 in 10.0 mi SSE 4.6 mph - N/A   Partly Cloudy
10:56 PM 72.0 °F - 70.0 °F 93% 29.92 in 8.0 mi SSE 4.6 mph - 0.01 in Rain Rain
11:56 PM 72.0 °F - 69.1 °F 91% 29.91 in 10.0 mi Calm Calm - 0.00 in   Clear